Location: ??????
(41.3164°N, 22.6615°E)
Time: 20:35:37
(UTC+00:00)

CAS-4A - Pass Details

Date: 09 July 2022
Orbit: 521 x 536 km, 43.0° (Epoch: 19 August)

Event Time Altitude Azimuth Distance (km) Brightness Sun altitude
Exits shadow 01:58:18 -1° 285° (WNW) 2,716 ? -10.7°
Rises 01:58:28 0° 284° (WNW) 2,645 ? -10.7°
Reaches altitude 10° 02:00:46 10° 278° (W) 1,756 ? -10.4°
Maximum altitude 02:04:35 43° 207° (SSW) 745 ? -9.9°
Drops below altitude 10° 02:08:24 10° 135° (SE) 1,758 ? -9.3°
Sets 02:10:41 0° 128° (SE) 2,647 ? -9.0°
